Weather History for Pine River, MN

Change the Weather History Date:

Friday, February 8, 2013

  Actual Average Record
Temperature  
Mean Temperature 8 °F -  
Max Temperature 23 °F 24 °F 46 °F (1999)
Min Temperature -7 °F 4 °F -27 °F (2014)
Degree Days  
Heating Degree Days 57    
Moisture  
Dew Point 4 °F    
Average Humidity 79    
Maximum Humidity 93    
Minimum Humidity 68    
Precipitation  
Precipitation 0.00 in - - ()
Sea Level Pressure  
Sea Level Pressure 30.26 in    
Wind  
Wind Speed 3 mph (SE)    
Max Wind Speed 13 mph    
Max Gust Speed 18 mph    
Visibility 9 miles    
Events Fog , Snow    
Averages and records for this station are not official NWS values.
T = Trace of Precipitation, MM = Missing Value Source: NWS Daily Summary

Daily Weather History Graph

Daily Weather History Graph

Search for Another Location

Airport:

Trip Planner

Search our weather history database for the weather conditions in past years. The results will help you decide how hot, cold, wet, or windy it might be!

Date:

Astronomy

Feb. 08, 2013 Rise Set
Actual Time 7:31 AM CST 5:32 PM CST
Civil Twilight 7:00 AM CST 6:04 PM CST
Nautical Twilight 6:24 AM CST 6:39 PM CST
Astronomical Twilight 5:49 AM CST 7:15 PM CST
Moon 6:04 AM CST (2/8) 4:04 PM CST (2/8)
Length of Visible Light 11h 03m
Length of Day
10h 00m
Waning Crescent, 3% of the Moon is Illuminated
Feb 8
Waning Crescent
Feb 10
New
Feb 17
First Quarter
Feb 25
Full
Mar 4
Last Quarter

Hourly Weather History & Observations

Time (CST) Temp. Windchill Dew Point Humidity Pressure Visibility Wind Dir Wind Speed Gust Speed Precip Events Conditions
12:12 AM -2.2 °F - -5.8 °F 85% 30.30 in 10.0 mi Calm Calm - N/A   Clear
12:33 AM -2.2 °F - -5.8 °F 85% 30.30 in 10.0 mi Calm Calm - N/A   Clear
12:53 AM -4.0 °F - -7.6 °F 85% 30.30 in 10.0 mi Calm Calm - N/A   Clear
1:12 AM -2.2 °F - -7.6 °F 78% 30.29 in 10.0 mi Calm Calm - N/A   Clear
1:33 AM -5.8 °F - -9.4 °F 84% 30.29 in 10.0 mi Calm Calm - N/A   Clear
1:53 AM -5.8 °F - -9.4 °F 84% 30.30 in 5.0 mi Calm Calm - N/A   Clear
2:12 AM -4.0 °F - -7.6 °F 85% 30.30 in 10.0 mi Calm Calm - N/A   Clear
2:33 AM -5.8 °F - -9.4 °F 84% 30.30 in 10.0 mi Calm Calm - N/A   Clear
2:53 AM -5.8 °F - -9.4 °F 84% 30.31 in 10.0 mi Calm Calm - N/A   Clear
3:13 AM -5.8 °F - -9.4 °F 84% 30.31 in 10.0 mi Calm Calm - N/A   Clear
3:32 AM -5.8 °F - -9.4 °F 84% 30.31 in 10.0 mi Calm Calm - N/A   Clear
3:53 AM -5.8 °F - -9.4 °F 84% 30.31 in 10.0 mi Calm Calm - N/A   Clear
4:13 AM -5.8 °F - -9.4 °F 84% 30.31 in 10.0 mi Calm Calm - N/A   Scattered Clouds
4:33 AM -7.6 °F - -11.2 °F 84% 30.31 in 7.0 mi Calm Calm - N/A   Mostly Cloudy
4:52 AM -7.6 °F - -11.2 °F 84% 30.32 in 10.0 mi Calm Calm - N/A   Overcast
5:12 AM -7.6 °F - -11.2 °F 84% 30.32 in 10.0 mi Calm Calm - N/A   Overcast
5:53 AM -7.6 °F - -11.2 °F 84% 30.32 in 10.0 mi Calm Calm - N/A   Overcast
6:12 AM -7.6 °F - -11.2 °F 84% 30.32 in 10.0 mi Calm Calm - N/A   Overcast
6:33 AM -5.8 °F - -9.4 °F 84% 30.32 in 7.0 mi Calm Calm - N/A   Overcast
6:53 AM -4.0 °F - -7.6 °F 85% 30.33 in 0.5 mi Calm Calm - N/A Fog Light Freezing Fog
7:13 AM -2.2 °F - -5.8 °F 85% 30.33 in 0.2 mi Calm Calm - N/A Fog Light Freezing Fog
7:33 AM -2.2 °F - -5.8 °F 85% 30.33 in 0.2 mi Calm Calm - N/A Fog Light Freezing Fog
7:53 AM -2.2 °F - -5.8 °F 85% 30.33 in 0.2 mi Calm Calm - N/A Fog Light Freezing Fog
8:13 AM -0.4 °F - -2.2 °F 92% 30.33 in 0.2 mi Calm Calm - N/A Snow Light Snow
8:33 AM 3.2 °F - -0.4 °F 85% 30.33 in 0.2 mi Calm Calm - N/A Fog Light Freezing Fog
8:53 AM 5.0 °F - 1.4 °F 85% 30.33 in 5.0 mi Calm Calm - N/A   Overcast
9:13 AM 6.8 °F - 1.4 °F 79% 30.33 in 10.0 mi Calm Calm - N/A   Overcast
9:33 AM 6.8 °F - 3.2 °F 85% 30.34 in 2.5 mi Calm Calm - N/A   Overcast
9:53 AM 8.6 °F - 5.0 °F 85% 30.34 in 10.0 mi Calm Calm - N/A   Mostly Cloudy
10:13 AM 8.6 °F - 6.8 °F 92% 30.34 in 5.0 mi Calm Calm - N/A Snow Light Snow
10:57 AM 12.2 °F 4.3 °F 10.4 °F 92% 30.33 in 10.0 mi SSE 4.6 mph - N/A   Clear
11:12 AM 15.8 °F 7.2 °F 12.2 °F 86% 30.33 in 10.0 mi SE 5.8 mph - N/A   Clear
11:33 AM 17.6 °F 6.4 °F 15.8 °F 93% 30.33 in 10.0 mi SSE 9.2 mph - N/A   Clear
11:53 AM 17.6 °F 6.4 °F 15.8 °F 93% 30.32 in 10.0 mi SE 9.2 mph - N/A   Clear
12:12 PM 19.4 °F 7.9 °F 15.8 °F 86% 30.31 in 10.0 mi SE 10.4 mph - N/A   Clear
12:33 PM 21.2 °F 8.9 °F 15.8 °F 80% 30.30 in 10.0 mi SSE 12.7 mph - N/A   Clear
12:53 PM 23.0 °F 11.7 °F 15.8 °F 74% 30.30 in 10.0 mi SSE 11.5 mph - N/A   Clear
1:13 PM 23.0 °F 11.7 °F 14.0 °F 68% 30.29 in 10.0 mi South 11.5 mph - N/A   Clear
1:33 PM 23.0 °F 11.1 °F 14.0 °F 68% 30.28 in 10.0 mi SSE 12.7 mph 16.1 mph N/A   Clear
1:53 PM 23.0 °F 11.7 °F 14.0 °F 68% 30.28 in 10.0 mi South 11.5 mph - N/A   Clear
2:13 PM 23.0 °F 12.4 °F 14.0 °F 68% 30.27 in 10.0 mi SSE 10.4 mph - N/A   Clear
2:33 PM 23.0 °F 13.1 °F 14.0 °F 68% 30.25 in 10.0 mi SSE 9.2 mph - N/A   Clear
2:53 PM 23.0 °F 13.1 °F 15.8 °F 74% 30.25 in 10.0 mi SSE 9.2 mph - N/A   Clear
3:12 PM 23.0 °F 11.7 °F 15.8 °F 74% 30.24 in 10.0 mi SSE 11.5 mph - N/A   Clear
3:32 PM 23.0 °F 13.1 °F 15.8 °F 74% 30.24 in 10.0 mi South 9.2 mph - N/A   Clear
3:53 PM 23.0 °F 13.1 °F 14.0 °F 68% 30.23 in 10.0 mi SSE 9.2 mph - N/A   Clear
4:13 PM 23.0 °F 13.1 °F 15.8 °F 74% 30.23 in 10.0 mi SE 9.2 mph - N/A   Clear
4:33 PM 23.0 °F 13.1 °F 14.0 °F 68% 30.22 in 10.0 mi SE 9.2 mph - N/A   Clear
4:53 PM 23.0 °F 12.4 °F 14.0 °F 68% 30.21 in 10.0 mi SE 10.4 mph - N/A   Clear
5:13 PM 21.2 °F 10.9 °F 12.2 °F 68% 30.21 in 10.0 mi SE 9.2 mph - N/A   Clear
5:33 PM 21.2 °F 11.7 °F 12.2 °F 68% 30.21 in 10.0 mi ESE 8.1 mph - N/A   Clear
5:53 PM 19.4 °F 8.6 °F 12.2 °F 74% 30.21 in 10.0 mi SE 9.2 mph - N/A   Clear
6:13 PM 19.4 °F 8.6 °F 12.2 °F 74% 30.21 in 10.0 mi SE 9.2 mph - N/A   Clear
6:33 PM 19.4 °F 9.5 °F 12.2 °F 74% 30.19 in 10.0 mi SE 8.1 mph - N/A   Clear
6:53 PM 19.4 °F 9.5 °F 12.2 °F 74% 30.19 in 10.0 mi SE 8.1 mph - N/A   Clear
7:13 PM 17.6 °F 6.4 °F 10.4 °F 73% 30.19 in 10.0 mi SE 9.2 mph - N/A   Clear
7:53 PM 17.6 °F 5.7 °F 10.4 °F 73% 30.19 in 10.0 mi SE 10.4 mph - N/A   Clear
8:13 PM 17.6 °F 5.7 °F 10.4 °F 73% 30.19 in 10.0 mi SE 10.4 mph 16.1 mph N/A   Clear
8:33 PM 17.6 °F 7.3 °F 10.4 °F 73% 30.18 in 10.0 mi SE 8.1 mph - N/A   Clear
8:53 PM 17.6 °F 6.4 °F 10.4 °F 73% 30.19 in 10.0 mi SE 9.2 mph - N/A   Clear
9:12 PM 17.6 °F 6.4 °F 10.4 °F 73% 30.18 in 10.0 mi SE 9.2 mph - N/A   Clear
9:33 PM 15.8 °F 4.2 °F 8.6 °F 73% 30.18 in 10.0 mi SE 9.2 mph - N/A   Clear
9:53 PM 17.6 °F 7.3 °F 10.4 °F 73% 30.17 in 10.0 mi SE 8.1 mph - N/A   Scattered Clouds
10:12 PM 17.6 °F 5.7 °F 10.4 °F 73% 30.17 in 10.0 mi SE 10.4 mph - N/A   Mostly Cloudy
10:33 PM 17.6 °F 5.7 °F 10.4 °F 73% 30.15 in 10.0 mi SE 10.4 mph 16.1 mph N/A   Overcast
10:53 PM 17.6 °F 4.3 °F 10.4 °F 73% 30.15 in 10.0 mi SE 12.7 mph - N/A   Overcast
11:12 PM 17.6 °F 4.3 °F 10.4 °F 73% 30.15 in 10.0 mi SE 12.7 mph - N/A   Overcast
11:33 PM 17.6 °F 4.3 °F 10.4 °F 73% 30.13 in 10.0 mi SE 12.7 mph 17.3 mph N/A   Overcast
11:53 PM 17.6 °F 4.3 °F 10.4 °F 73% 30.12 in 10.0 mi SSE 12.7 mph 18.4 mph N/A   Overcast